Regional Weather Roundup
Issued by NWS

Home | Current Version | Previous Version | Text Only | Print | Product List | Glossary Off
Versions: 1 2 3 4 5 6 7 8 9 10 11 12 13 14 15 16 17 18 19 20 21 22 23 24 25 26 27

000
ASUS45 KBOU 181407
RWRCO

WEATHER ROUNDUP FOR COLORADO
NATIONAL WEATHER SERVICE DENVER/BOULDER CO
700 AM MST SAT FEB 18 2017

NOTE: "FAIR" INDICATES FEW OR NO CLOUDS BELOW 12000 FEET WITH NO
SIGNIFICANT WEATHER AND/OR OBSTRUCTIONS TO VISIBILITY.

COZ001>005-013-030-031-181500-
...NORTHWEST COLORADO...

CITY           SKY/WX    TMP DP  RH WIND       PRES   REMARKS
CRAIG          FAIR      38  31  76 E8        29.80F
HAYDEN         FAIR      36  28  75 SE8       29.82S
MEEKER         FAIR      36  34  92 CALM      29.81S
MOUNT WERNER   NOT AVBL
STEAMBOAT SPGS FAIR      34  32  93 CALM      29.83R
WALDEN           N/A     30  23  74 SE12        N/A  WCI  21
$$

COZ006>008-011-181500-
...WEST CENTRAL VALLEYS...

CITY           SKY/WX    TMP DP  RH WIND       PRES   REMARKS
GRAND JUNCTION MOCLDY    42  37  82 SE12      29.80S
MONTROSE       FAIR      32  31  96 SE7       29.86F WCI  26
EAGLE          PTCLDY    34  28  80 SE3       29.87S
RIFLE          FAIR      36  35  96 CALM      29.83S
DELTA          FAIR      38  37  95 N6        29.85S
NUCLA          CLOUDY    36  32  87 E9        29.86S
$$

COZ017>023-064>068-181500-
...SOUTHWEST COLORADO...

CITY           SKY/WX    TMP DP  RH WIND       PRES   REMARKS
DURANGO        FAIR      29  27  92 CALM      29.87S
CORTEZ         FAIR      33  32  96 NE5       29.83F WCI  29
PAGOSA SPRINGS FAIR      29  29 100 CALM      29.89F FOG
TELLURIDE      FAIR      29  28  95 CALM      29.90R
WOLF CREEK PAS FAIR      21  21 100 S5        30.00S WCI  15
$$

COZ009-010-012-014-032>034-037-058>063-181500-
...CENTRAL COLORADO...

CITY           SKY/WX    TMP DP  RH WIND       PRES   REMARKS
ASPEN          FAIR      27  24  89 CALM      29.84S
BUENA VISTA    FAIR      29  24  81 CALM      29.88R
COPPER MTN     FAIR      28  19  69 S13       29.92F WCI  18
BERTHOUD PASS  FAIR      21  10  63 W20G29    29.93R WCI   6
COTTONWOOD PAS FAIR      34  23  64 SE7       29.91R WCI  28
GUNNISON       CLOUDY    24  21  88 CALM      29.92S
KREMMLING      MOCLDY    37  34  87 E3        29.86S
LEADVILLE      FAIR      25  17  72 N3        29.87F
MONARCH PASS   FOG       21  19  93 SW13      30.04R VSB<1/4 WCI   9
SALIDA         FAIR      33  26  74 SW3       29.95R
SUNLIGHT       NOT AVBL
WILKERSON PASS FAIR      28  18  64 S5        29.97R WCI  23
$$

COZ069>075-181500-
...SAN LUIS VALLEY/SANGRE DE CRISTO MOUNTAINS...

CITY           SKY/WX    TMP DP  RH WIND       PRES   REMARKS
ALAMOSA        FAIR      26  24  92 N3        29.89S
LA VETA PASS   FAIR      30  23  74 NE15      29.93R WCI  19
SAGUACHE       FAIR      27  23  86 N5        29.92R WCI  21
$$

COZ035-036-038>040-181500-
...NORTHERN COLORADO FRONT RANGE...

CITY           SKY/WX    TMP DP  RH WIND       PRES   REMARKS
DENVER INTL AP MOCLDY    40  18  41 VRB3      29.77R
DMNS CITY PARK   N/A     40  15  37 SE6G14    29.78R
AURORA         MOCLDY    41  17  38 SW7       29.78S
FRONT RANGE AP MOCLDY    45  19  36 SW10      29.77
ERIE MUNI ARPT FAIR      32  22  64 CALM      29.77S
BOULDER MUN AP FAIR      36  19  51 NW3       29.77S
CENTENNIAL     MOCLDY    40  17  39 W7        29.78S
BROOMFIELD     MOCLDY    43  12  28 VRB3      29.78S
FORT COLLINS   FAIR      36  22  56 CALM      29.78F
LONGMONT       FAIR      36  21  53 CALM      29.78F
$$

COZ041-046-047-076>085-087-088-181500-
...PIKES PEAK/PALMER DIVIDE AND SOUTHERN FOOTHILLS...

CITY           SKY/WX    TMP DP  RH WIND       PRES   REMARKS
COLO. SPRINGS  MOCLDY    41  15  35 CALM      29.83R
A. F. ACADEMY  FAIR      31  17  55 N5        29.82R WCI  27
SCHRIEVER AFB  MOCLDY    40  15  36 NE9       29.83R
ELLICOTT       MOCLDY   N/A N/A N/A E7        29.81R
FALCON         MOCLDY    36  17  47 SW5       29.84S
FORT CARSON    FAIR      40  15  35 CALM      29.81S
LIMON          FAIR      22  19  89 CALM      29.82R
MONUMENT HILL  MOCLDY    37  19  48 SW5       29.83S
TRINIDAD       FAIR      34  21  59 W8        29.83R WCI  27
$$

COZ042>045-048>051-090-091-181500-
...NORTHEAST COLORADO...

CITY           SKY/WX    TMP DP  RH WIND       PRES   REMARKS
GREELEY ARPT   NOT AVBL
AKRON          FAIR      36  23  59 S13       29.78S
BURLINGTON     FAIR      26  19  74 S5        29.80S WCI  20
WRAY           NOT AVBL
STERLING       FAIR      28  23  80 CALM      29.78S
HOLYOKE        FAIR      27  19  74 SW5       29.80S WCI  21
FORT MORGAN    FAIR      36  23  60 CALM      29.78S
$$

COZ086-089-092>099-181500-
...SOUTHEAST COLORADO...

CITY           SKY/WX    TMP DP  RH WIND       PRES   REMARKS
PUEBLO         FAIR      36  22  56 CALM      29.80S
LA JUNTA       FAIR      29  21  72 NW3       29.81R
LAMAR          FAIR      24  18  77 SW3       29.81R
SPRINGFIELD      N/A     33  22  63 W8        29.80R WCI  26
$$




USA.gov is the U.S. government's official web portal to all federal, state and local government web resources and services.